GIOVE-A 1 28922U 05051A 12033.48416476 -.00000009 +00000-0 +10000-3 0 09212 2 28922 056.2047 132.0922 0007290 012.2026 347.8151 01.69484494037849 GIOVE-B 1 32781U 08020A 12034.02909536 +.00000029 +00000-0 +10000-3 0 05570 2 32781 055.9179 166.4598 0020213 220.1759 139.6318 01.70956883023555